This demonstration page uses our WeatherBlox Daily Observations layout. Learn more.

Left ArrowRight Arrow

Hourly Observations for April 8, 2021

Temp ( °F °C ) Dew Point ( °F °C ) Humidity (%) Winds ( mph kmh ) Pressure ( in mb ) Visibility ( mi km ) Precip ( " mm )
12:06 am 00:06 Cloudy 45 7 37 3 76 76 N 24 39 29.74 1007 10 16 0.00 0.00
12:32 am 00:32 Cloudy 45 7 36 2 71 71 NNW 20 31 29.73 1007 10 16 0.00 0.00
12:56 am 00:56 Cloudy 45 7.2 35 1.7 68 68 NNW 18 30 29.70 1006 10 16 0.00 0.00
1:56 am 01:56 Cloudy 45 7.2 31 -0.6 58 58 NNW 21 33 29.70 1006 10 16 0.00 0.00
2:56 am 02:56 Cloudy 46 7.8 30 -1.1 54 54 NNW 20 31 29.68 1005 10 16 0.00 0.00
3:56 am 03:56 Mostly Clear 43 6.1 30 -1.1 60 60 NW 17 28 29.67 1005 10 16 0.00 0.00
4:56 am 04:56 Cloudy 43 6.1 30 -1.1 60 60 NW 15 24 29.67 1005 10 16 0.00 0.00
5:56 am 05:56 Mostly Cloudy 42 5.6 29 -1.7 60 60 NNW 15 24 29.67 1005 10 16 0.00 0.00
6:56 am 06:56 Clear 40 4.4 28 -2.2 63 63 NW 14 22 29.68 1005 10 16 0.00 0.00
7:56 am 07:56 Sunny 39 3.9 28 -2.2 65 65 NW 15 24 29.70 1006 10 16 0.00 0.00
8:56 am 08:56 Sunny 42 5.6 30 -1.1 62 62 NW 20 31 29.70 1006 10 16 0.00 0.00
9:56 am 09:56 Sunny 48 8.9 33 0.6 56 56 NW 22 35 29.68 1005 10 16 0.00 0.00
10:56 am 10:56 Sunny 53 11.7 27 -2.8 37 37 NW 18 30 29.68 1005 10 16 0.00 0.00
11:56 am 11:56 Sunny 56 13.3 24 -4.4 29 29 NNW 22 35 29.65 1004 10 16 0.00 0.00
12:56 pm 12:56 Sunny 59 15 23 -5 25 25 NW 22 35 29.63 1003 10 16 0.00 0.00
1:18 pm 13:18 Hazy 61 16 23 -5 23 23 NNW 18 30 29.59 1002 2 3 0.00 0.00
1:25 pm 13:25 Hazy 61 16 23 -5 23 23 NW 16 26 29.59 1002 5 8 0.00 0.00
1:44 pm 13:44 Hazy 63 17 23 -5 22 22 NW 20 31 29.57 1001 3 4 0.00 0.00
1:54 pm 13:54 Hazy 63 17 25 -4 24 24 NW 20 31 29.57 1001 2 3 0.00 0.00
1:56 pm 13:56 Hazy 62 16.7 24 -4.4 23 23 WNW 23 37 29.60 1003 3 4 0.00 0.00
2:04 pm 14:04 Hazy 63 17 25 -4 24 24 WNW 24 39 29.56 1001 4 6 0.00 0.00
2:56 pm 14:56 Sunny 64 17.8 23 -5 21 21 NW 20 31 29.57 1002 10 16 0.00 0.00
3:56 pm 15:56 Sunny 66 18.9 23 -5 19 19 NW 22 35 29.56 1001 10 16 0.00 0.00
4:56 pm 16:56 Sunny 66 18.9 21 -6.1 18 18 NW 18 30 29.55 1001 10 16 0.00 0.00
5:56 pm 17:56 Sunny 68 20 21 -6.1 17 17 NW 17 28 29.55 1001 10 16 0.00 0.00
6:56 pm 18:56 Sunny 66 18.9 23 -5 19 19 NNW 18 30 29.56 1001 10 16 0.00 0.00
7:56 pm 19:56 Sunny 62 16.7 26 -3.3 25 25 NNW 7 11 29.57 1001 10 16 0.00 0.00
8:56 pm 20:56 Clear 55 12.8 26 -3.3 33 33 NW 5 7 29.60 1002 10 16 0.00 0.00
9:56 pm 21:56 Clear 52 11.1 27 -2.8 38 38 WNW 5 7 29.60 1003 10 16 0.00 0.00
10:56 pm 22:56 Clear 44 6.7 28 -2.2 53 53 WNW 7 11 29.60 1002 10 16 0.00 0.00
11:56 pm 23:56 Clear 42 5.6 28 -2.2 58 58 Calm 29.60 1002 10 16 0.00 0.00

Powered by AerisWeather